{"data":{"norad_id":43800,"intl_designator":"2018-099AU","name":"ICEYE-X2","alt_names":[],"object_type":"PAYLOAD","status":"ACTIVE","operator":null,"country":"FIN","launch_date":"2018-12-03","launch_site_code":"AFWTR","launch_vehicle":null,"mission":null,"orbit_class":"UNKNOWN","rcs_meters":null,"size_class":null,"mass_kg":null,"dimensions":null,"purposes":[],"wikipedia_slug":null,"has_3d_model":false,"image_url":null,"decayed_at":null,"tle_current":{"epoch":"2026-09-20T04:20:01.572000Z","epoch_age_seconds":86001,"freshness":"FRESH","line1":"1 43800U 18099AU  26263.18057375  .00004991  00000+0  24284-3 0  9992","line2":"2 43800  97.4262 315.3617 0009134 340.3972  19.6910 15.18811674427234","mean_motion":15.18811674,"eccentricity":0.0009134,"inclination_deg":97.4262,"raan_deg":315.3617,"arg_perigee_deg":340.3972,"mean_anomaly_deg":19.691,"bstar":0.00024284,"rev_number":42723,"period_min":94.810964693704,"perigee_km":503.13974732761,"apogee_km":515.72195627929,"semimajor_km":6887.5678518034,"source":"CELESTRAK","updated_at":"2026-09-20T09:00:14.408010Z"}}}